Content
SEND FEEDBACK

Daily
Averages
Monthly
Summary
United Kingdom

BELFAST, NORTHERN IRELAND


Home > Europe > United Kingdom > Northern Ireland
Elevation: 16 feet     Latitude: 54 36N     Longitude: 005 53W

WEATHER
 
SELECT A DAY
Number of Records: 191,858;   Date Range: 7/1/96 - 9/22/14
 
SHARE

PRINT THIS DATA

[ ← Previous Day ]
WEATHER ALMANAC - APRIL 30, 2013
[ Next Day → ]
[ °C ]   °F
Weather ElementAverageHighLow
Temperature49.9 °F55.4 °F (1:50 pm)39.2 °F (6:50 am)
Dewpoint34.9 °F37.4 °F (8:20 am)30.2 °F (2:20 pm)
Humidity57.8 %87 % (6:50 am)38 % (4:20 pm)
Barometer30.29 in30.33 in (8:20 am)30.24 in (6:20 pm)
Wind Speed6.8 mph13.8 mph (5:20 pm)
Weather ElementAverage
Visibility6.2 mi
Wind DirectionESE (124.7 °)

Weather ElementTotal
Precipitation---
Heating Degree Days17.7 (Base 65)
Averaged from 30 records on April 30, 2013
WEATHER CONDITIONS BREAKOUT
WIND DIRECTION BREAKOUT
WEATHER BY HOUR - APRIL 30, 2013
[ °C ]   °F
Local TimeTemperatureDewpointHumidityBarometerVisibilityWind DirectionWind SpeedGust SpeedPrecipitationEventsConditions
6:50 AM39.2 °F35.6 °F87 %30.30 in6.2 miSE (140°)4.6 mphPartly Cloudy
7:20 AM41.0 °F35.6 °F81 %30.30 in6.2 miSouth (170°)4.6 mphPartly Cloudy
7:50 AM42.8 °F35.6 °F76 %30.30 in6.2 miSouth (170°)4.6 mphPartly Cloudy
8:20 AM44.6 °F37.4 °F76 %30.33 in6.2 miVariable2.3 mphPartly Cloudy
8:50 AM46.4 °F37.4 °F71 %30.33 in6.2 miNNE (30°)5.8 mphPartly Cloudy
9:20 AM46.4 °F37.4 °F71 %30.33 in6.2 miVariable2.3 mphPartly Cloudy
9:50 AM48.2 °F35.6 °F62 %30.33 in6.2 miVariable3.5 mphPartly Cloudy
10:20 AM50.0 °F35.6 °F58 %30.33 in6.2 miVariable3.5 mphPartly Cloudy
10:50 AM50.0 °F35.6 °F58 %30.33 in6.2 miNW (320°)5.8 mphPartly Cloudy
11:20 AM50.0 °F32.0 °F50 %30.33 in6.2 miVariable2.3 mphScattered Clouds
11:50 AM51.8 °F32.0 °F47 %30.33 in6.2 miVariable2.3 mphScattered Clouds
12:20 PM50.0 °F33.8 °F54 %30.33 in6.2 miSSW (210°)4.6 mphScattered Clouds
12:50 PM50.0 °F33.8 °F54 %30.33 in6.2 miVariable3.5 mphScattered Clouds
1:20 PM51.8 °F33.8 °F50 %30.33 in6.2 miVariable2.3 mphScattered Clouds
1:50 PM55.4 °F32.0 °F41 %30.30 in6.2 miNW (320°)5.8 mphScattered Clouds
2:20 PM51.8 °F30.2 °F44 %30.30 in6.2 miVariable4.6 mphScattered Clouds
2:50 PM53.6 °F32.0 °F44 %30.30 in6.2 miNW (310°)4.6 mphScattered Clouds
3:20 PM53.6 °F33.8 °F47 %30.30 in6.2 miVariable4.6 mphScattered Clouds
3:50 PM53.6 °F30.2 °F41 %30.27 in6.2 miWSW (240°)6.9 mphScattered Clouds
4:20 PM55.4 °F30.2 °F38 %30.27 in6.2 miWSW (240°)9.2 mphScattered Clouds
4:50 PM53.6 °F37.4 °F54 %30.27 in6.2 miVariable9.2 mphScattered Clouds
5:20 PM51.8 °F35.6 °F54 %30.27 in6.2 miSSE (160°)13.8 mphScattered Clouds
5:50 PM51.8 °F37.4 °F58 %30.27 in6.2 miSouth (170°)12.7 mphMostly Cloudy
6:20 PM51.8 °F35.6 °F54 %30.24 in6.2 miSouth (180°)12.7 mphMostly Cloudy
6:50 PM50.0 °F35.6 °F58 %30.24 in6.2 miSouth (170°)12.7 mphMostly Cloudy
7:20 PM50.0 °F37.4 °F62 %30.24 in6.2 miSSE (160°)10.4 mphMostly Cloudy
7:50 PM51.8 °F37.4 °F58 %30.24 in6.2 miSSE (160°)8.1 mphMostly Cloudy
8:20 PM50.0 °F37.4 °F62 %30.24 in6.2 miSouth (180°)11.5 mphMostly Cloudy
8:50 PM50.0 °F37.4 °F62 %30.24 in6.2 miSSW (200°)12.7 mphMostly Cloudy
9:20 PM50.0 °F37.4 °F62 %30.24 in6.2 miSSW (210°)11.5 mphMostly Cloudy
Hourly data recorded from EGAC, located miles away from Belfast, Northern Ireland







STORIES FROM OUR PARTNERS